Location: Newark
(39.0622°N, 106.5590°E)
Time: 15:55:02
(UTC+00:00)

S-56A Canister/Altair - Pass Details

Date: 26 January 2020
Orbit: 633 x 2499 km, 38.9° (Epoch: 17 February)

Event Time Altitude Azimuth Distance (km) Brightness Sun altitude
Rises 12:11:42 0° 234° (SW) 4,569 12.4 -24.2°
Reaches altitude 10° 12:15:21 10° 229° (SW) 3,281 11.4 -24.9°
Maximum altitude 12:22:37 47° 159° (SSE) 1,243 8.4 -26.3°
Enters shadow 12:22:57 46° 149° (SSE) 1,234 8.3 -26.4°
